CZ-6A DEB, 60810

Orbit data source: Space-Track

CZ-6A DEB, 60810 is space debris in LEO originally from a launch on Tue, 06 Aug 2024 UTC launched from the Taiyaun Space Center, China (TSC). Debris objects in space refer to the collection of defunct objects orbiting the Earth. Examples of debris include non-operational satellites, rocket bodies, and fragments generated from explosions, collisions, or faulty payload assembly.

Loading next visibility...
Identifier
60810, 2024-140GM
Orbit
LEO
Country
Flag of CNCN / PRC
Related business
Manufacturer
SAST
Mission
Spacecraft
Bus & Motor
Unknown
Mass
Unknown
Launch date (UTC)
2024-08-06 (2 years ago)
Launch vehicle
Unknown
Launch site
Taiyaun Space Center, China (TSC)
Object type
Payload
Rocket body
Debris
Shape & HBR
Unknown shape, 0.1 m
Radar Cross Section
Medium (>0.1 m² and <1 m²)

Expand to show TLE details & history
Last TLE update: 12 hours ago

TLE from 12 hours ago
0 CZ-6A DEB
1 60810U 24140GM  26171.35536640  .00000998  00000-0  57922-3 0  9999
2 60810  89.3726 305.4824 0116718 237.8563 121.1253 14.04792798 95095
Epoch: 2026-06-20T08:31Z
TLE epoch observation values (Epoch: 2026-06-20T08:31:43.656Z)
Latitude
0.00002°
Longitude
-91.02068°
Altitude
924.779 km
Speed
7.367 km/s
True Right ascension
20h 21m 55s
True Declination
0° 00' 00"
Sunlit
Object was in full shadow at epoch
Visualization orbit readout
Latitude
Unknown
Longitude
Unknown
Altitude
Unknown
Speed
Unknown
Apparent Right ascension
Unknown
Apparent Declination
Unknown
Sunlit
N/A
Visualization observer readout
Local Sidereal Time
07:21:45
Azimuth
Unknown
Elevation
Unknown
Doppler factor
Unknown
Orbital elements
Apogee altitude
958.865 km
Perigee altitude
789.568 km
Semi-major axis
7,252.354 km
Eccentricity
0.01167
Inclination
89.3726°
RAAN
305.4824°
Arg. of periapsis
237.8563°
True anomaly
122.2616°
Mean anomaly
121.1253°
Eccentric anomaly
121.69431°
Mean motion
3.51419 °/min
Orbital period
102.44 mins
BSTAR
0.00057922
Loading maneuver chart data...
Computing Atmospheric mass density...
Loading historical data...
Loading historical data...
Loading historical data...
Loading historical data...
Loading historical data...
Loading historical data...
Loading historical data...

Documentation

Showing up to 5 results
|